Location: Newark
(11.6000°N, 43.1667°E)
Time: 23:22:20
(UTC+00:00)

Envisat - Pass Details

Date: 30 September 2019
Orbit: 764 x 766 km, 98.1° (Epoch: 17 October)

Event Time Altitude Azimuth Distance (km) Brightness Sun altitude
Rises 16:21:47 0° 194° (SSW) 3,219 6.4 -21.2°
Reaches altitude 10° 16:24:29 10° 207° (SSW) 2,294 5.8 -21.9°
Maximum altitude 16:28:30 24° 260° (W) 1,547 5.3 -22.9°
Drops below altitude 10° 16:32:31 10° 313° (NW) 2,293 6.1 -23.9°
Sets 16:35:14 0° 327° (NNW) 3,219 6.7 -24.5°
